Le nostre stazioni meteo in Italia

Pubblicità
Il mio iltempo24.it
Alghero, Italia (16520): Temperatura & dewpoint: 30.06.2020 00:00:00 - 06.07.2020 00:00:00 (CEST)Alghero, Italia (16520): velocità del vento: 30.06.2020 00:00:00 - 06.07.2020 00:00:00 (CEST)Alghero, Italia (16520): direzione del vento: 30.06.2020 00:00:00 - 06.07.2020 00:00:00 (CEST)Alghero, Italia (16520): reduced air pressure: 30.06.2020 00:00:00 - 06.07.2020 00:00:00 (CEST)Alghero, Italia (16520): visibility: 30.06.2020 00:00:00 - 06.07.2020 00:00:00 (CEST)Alghero, Italia (16520): precipitazioni: 30.06.2020 00:00:00 - 06.07.2020 00:00:00 (CEST)
Data & Tempo tt [°C] td [°C] ff [km/h] ff [kn] dd ppp [hPa] vv [km] rr [mm]
06.07.2020 00:00:00 19,0 18,0 4 2 - - 10 -
05.07.2020 23:00:00 20,5 18,6 5 3 SSO 1015,5 10 0,0
05.07.2020 22:00:00 21,0 19,0 8 4 SO - 10 -
05.07.2020 21:00:00 23,0 19,0 5 3 O - 10 -
05.07.2020 20:00:00 24,2 18,2 11 6 OSO 1014,9 10 -
05.07.2020 19:00:00 26,0 18,0 11 6 O - 10 -
05.07.2020 18:00:00 26,0 17,0 16 9 OSO - 10 -
05.07.2020 17:00:00 27,6 17,7 16 9 O 1016,1 10 0,0
05.07.2020 16:00:00 27,0 19,0 18 10 O - 10 -
05.07.2020 15:00:00 28,0 19,0 18 10 O - 10 -
05.07.2020 14:00:00 28,4 18,1 13 7 ONO 1017,1 10 -
05.07.2020 13:00:00 27,0 19,0 21 11 S - 10 -
05.07.2020 12:00:00 26,0 20,0 16 9 S - 10 -
05.07.2020 11:00:00 26,3 20,1 16 9 S 1018,0 10 0,0
05.07.2020 10:00:00 24,0 19,0 13 7 SSO - 10 -
05.07.2020 09:00:00 23,0 18,0 8 4 SSO - 10 -
05.07.2020 08:00:00 20,2 16,6 4 2 - 1017,9 10 -
05.07.2020 07:00:00 17,0 16,0 0 0 N - 10 -
05.07.2020 06:00:00 16,0 15,0 2 1 - - 10 -
05.07.2020 05:00:00 16,4 15,7 0 0 N 1017,9 10 0,0
05.07.2020 04:00:00 17,0 16,0 2 1 - - 10 -
05.07.2020 03:00:00 18,0 16,0 4 2 - - 10 -
05.07.2020 02:00:00 18,2 16,5 4 2 - 1018,9 10 -
05.07.2020 01:00:00 20,0 18,0 2 1 - - 10 -
05.07.2020 00:00:00 21,0 18,0 2 1 - - 10 -
04.07.2020 23:00:00 20,8 17,7 4 2 - 1018,8 10 0,0
04.07.2020 22:00:00 22,0 18,0 5 3 NNO - 10 -
04.07.2020 21:00:00 24,0 17,0 9 5 NO - 10 -
04.07.2020 20:00:00 24,9 16,5 15 8 NNO 1017,8 10 -
04.07.2020 19:00:00 26,0 17,0 15 8 NNO - 10 -
04.07.2020 18:00:00 27,0 18,0 15 8 N - 10 -
04.07.2020 17:00:00 26,9 18,3 18 10 NNO 1017,2 10 0,0
04.07.2020 16:00:00 27,0 17,0 21 11 NNO - 10 -
04.07.2020 15:00:00 28,0 18,0 15 8 NO - 10 -
04.07.2020 14:00:00 27,8 15,5 18 10 NNO 1017,3 10 -
04.07.2020 13:00:00 27,0 19,0 16 9 NNO - 10 -
04.07.2020 12:00:00 27,0 19,0 11 6 - - 10 -
04.07.2020 11:00:00 26,3 20,7 11 6 OSO 1016,2 10 0,0
04.07.2020 10:00:00 23,0 19,0 15 8 O - 10 -
04.07.2020 09:00:00 23,0 17,0 16 9 O - 10 -
04.07.2020 08:00:00 23,0 17,0 13 7 O - 10 -
04.07.2020 07:00:00 22,0 16,0 13 7 O - 10 -
04.07.2020 06:00:00 22,0 15,0 11 6 O - 10 -
04.07.2020 05:00:00 22,0 15,0 15 8 O - 10 -
04.07.2020 04:00:00 21,0 16,0 8 4 O - 10 -
04.07.2020 03:00:00 20,0 17,0 11 6 OSO - 10 -
04.07.2020 02:00:00 20,0 16,0 5 3 OSO - 10 -
04.07.2020 01:00:00 20,0 16,0 4 2 - - 10 -
04.07.2020 00:00:00 19,0 15,0 2 1 - - 10 -
03.07.2020 23:00:00 - - - - - - - -
03.07.2020 22:00:00 - - - - - - - -
03.07.2020 21:00:00 - - - - - - - -
03.07.2020 20:00:00 23,9 14,4 11 6 NNO 1015,9 10 -
03.07.2020 19:00:00 26,0 16,0 16 9 NO - 10 -
03.07.2020 18:00:00 26,0 16,0 18 10 NO - 10 -
03.07.2020 17:00:00 27,3 16,1 16 9 NO 1015,3 10 0,0
03.07.2020 16:00:00 28,0 15,0 18 10 NNO - 10 -
03.07.2020 15:00:00 30,0 12,0 16 9 N - 10 -
03.07.2020 14:00:00 28,3 14,5 16 9 NNO 1015,1 10 -
03.07.2020 13:00:00 29,0 15,0 16 9 NO - 10 -
03.07.2020 12:00:00 29,0 17,0 18 10 NO - 10 -
03.07.2020 11:00:00 28,4 18,3 11 6 NO 1014,3 10 0,0
03.07.2020 10:00:00 27,0 22,0 9 5 O - 10 -
03.07.2020 09:00:00 26,0 22,0 5 3 O - 10 -
03.07.2020 08:00:00 23,4 20,9 4 2 - 1013,6 10 -
03.07.2020 07:00:00 19,0 18,0 4 2 - - 10 -
03.07.2020 06:00:00 19,0 18,0 2 1 - - 10 -
03.07.2020 05:00:00 19,0 18,1 2 1 - 1012,8 10 0,0
03.07.2020 04:00:00 20,0 19,0 4 2 - - 10 -
03.07.2020 03:00:00 20,0 19,0 4 2 - - 10 -
03.07.2020 02:00:00 20,4 19,2 2 1 - 1013,1 10 -
03.07.2020 01:00:00 22,0 20,0 2 1 - - 10 -
03.07.2020 00:00:00 23,0 21,0 2 1 NNE - 10 -
02.07.2020 23:00:00 22,8 20,5 4 2 - 1012,9 10 0,0
02.07.2020 22:00:00 24,0 21,0 8 4 ONO - 10 -
02.07.2020 21:00:00 25,0 21,0 9 5 O - 10 -
02.07.2020 20:00:00 27,4 20,0 11 6 ONO 1012,3 10 -
02.07.2020 19:00:00 28,0 20,0 13 7 ONO - 10 -
02.07.2020 18:00:00 29,0 21,0 18 10 ONO - 10 -
02.07.2020 17:00:00 28,9 20,5 22 12 O 1012,2 10 0,0
02.07.2020 16:00:00 31,0 21,0 18 10 O - 10 -
02.07.2020 15:00:00 30,0 21,0 24 13 O - 10 -
02.07.2020 14:00:00 32,2 20,7 15 8 O 1012,0 10 -
02.07.2020 13:00:00 31,0 20,0 13 7 N - 10 -
02.07.2020 12:00:00 29,0 20,0 13 7 O - 10 -
02.07.2020 11:00:00 29,6 20,1 9 5 NO 1012,4 10 0,0
02.07.2020 10:00:00 28,0 21,0 8 4 - - 10 -
02.07.2020 09:00:00 26,0 22,0 5 3 NE - 10 -
02.07.2020 08:00:00 23,2 20,7 4 2 NNE 1012,0 10 -
02.07.2020 07:00:00 20,0 19,0 2 1 - - 10 -
02.07.2020 06:00:00 21,0 20,0 4 2 E - 10 -
02.07.2020 05:00:00 21,4 19,7 2 1 - 1011,0 10 0,0
02.07.2020 04:00:00 22,0 20,0 4 2 - - 10 -
02.07.2020 03:00:00 23,0 22,0 4 2 - - 10 -
02.07.2020 02:00:00 23,6 22,2 8 4 SO 1011,7 10 -
02.07.2020 01:00:00 24,0 22,0 11 6 SSO - 10 -
02.07.2020 00:00:00 23,0 20,0 4 2 - - 10 -
01.07.2020 23:00:00 23,4 20,0 2 1 - 1011,2 10 0,0
01.07.2020 22:00:00 26,0 20,0 4 2 - - 10 -
01.07.2020 21:00:00 27,0 21,0 8 4 SSO - 10 -
01.07.2020 20:00:00 28,7 19,5 9 5 O 1011,0 10 -
01.07.2020 19:00:00 32,0 17,0 13 7 SO - 10 -
01.07.2020 18:00:00 32,0 20,0 13 7 SSE - 10 -
01.07.2020 17:00:00 34,4 20,8 11 6 S 1010,8 10 0,0
01.07.2020 16:00:00 - - - - - - - -
01.07.2020 15:00:00 34,0 19,0 18 10 S - 10 -
01.07.2020 14:00:00 34,0 20,0 5 3 - 1011,3 10 -
01.07.2020 13:00:00 35,0 16,0 11 6 N - 10 -
01.07.2020 12:00:00 34,0 16,0 11 6 ENE - 10 -
01.07.2020 11:00:00 32,2 17,6 13 7 NE 1012,2 10 0,0
01.07.2020 10:00:00 29,0 18,0 13 7 NE - 10 -
01.07.2020 09:00:00 26,0 19,0 11 6 NE - 10 -
01.07.2020 08:00:00 23,0 18,6 8 4 NNE 1013,3 10 -
01.07.2020 07:00:00 20,0 18,0 4 2 - - 10 -
01.07.2020 06:00:00 19,0 17,0 8 4 NNE - 10 -
01.07.2020 05:00:00 19,0 17,2 4 2 NE 1013,2 10 0,0
01.07.2020 04:00:00 - - - - - - - -
01.07.2020 03:00:00 20,0 18,0 8 4 NNE - 10 -
01.07.2020 02:00:00 20,7 18,1 4 2 NE 1014,2 30 -
01.07.2020 01:00:00 22,0 18,0 5 3 NNE - 10 -
01.07.2020 00:00:00 22,0 18,0 8 4 NNE - 10 -
30.06.2020 23:00:00 22,7 18,2 9 5 NE 1014,7 10 0,0
30.06.2020 22:00:00 24,0 19,0 5 3 NNO - 10 -
30.06.2020 21:00:00 25,0 20,0 8 4 ONO - 10 -
30.06.2020 20:00:00 26,4 18,3 11 6 ONO 1013,8 10 -
30.06.2020 19:00:00 28,0 18,0 13 7 O - 10 -
30.06.2020 18:00:00 29,0 17,0 18 10 ONO - 10 -
30.06.2020 17:00:00 29,4 16,2 18 10 ONO 1014,5 10 0,0
30.06.2020 16:00:00 29,0 19,0 16 9 ONO - 10 -
30.06.2020 15:00:00 29,0 19,0 18 10 O - 10 -
30.06.2020 14:00:00 29,1 19,8 18 10 ONO 1015,0 10 -
30.06.2020 13:00:00 29,0 20,0 16 9 ONO - 10 -
30.06.2020 12:00:00 29,0 21,0 15 8 O - 10 -
30.06.2020 11:00:00 28,2 20,2 11 6 O 1015,0 10 0,0
30.06.2020 10:00:00 27,0 20,0 8 4 - - 10 -
30.06.2020 09:00:00 25,0 20,0 2 1 - - 10 -
30.06.2020 08:00:00 23,2 20,5 2 1 - 1014,9 6 -
30.06.2020 07:00:00 20,0 19,0 4 2 NNE - 6 -
30.06.2020 06:00:00 20,0 20,0 2 1 - - 6 -
30.06.2020 05:00:00 19,9 19,4 2 1 - 1014,6 7 0,0
30.06.2020 04:00:00 20,0 20,0 4 2 NE - 10 -
30.06.2020 03:00:00 21,0 20,0 4 2 - - 10 -
30.06.2020 02:00:00 21,6 20,9 2 1 - 1015,4 10 -
30.06.2020 01:00:00 22,0 22,0 4 2 - - 10 -
30.06.2020 00:00:00 23,0 22,0 5 3 ONO - 10 -

tt = Temperatura
td = dewpoint
ff = velocità del vento
dd = direzione del vento
ppp = reduced air pressure
vv = visibility
rr = precipitazioni

Stazioni seguenti

WeatherPro
AMSI
MeteoEarth